TimeCDT,TemperatureF,Dew PointF,Humidity,Sea Level PressureIn,VisibilityMPH,Wind Direction,Wind SpeedMPH,Gust SpeedMPH,PrecipitationIn,Events,Conditions,WindDirDegrees,DateUTC
12:53 AM,55.0,42.1,62,29.90,10.0,Calm,Calm,-,N/A,,Clear,0,2012-10-01 05:53:00
1:53 AM,53.1,42.1,66,29.89,10.0,Calm,Calm,-,N/A,,Clear,0,2012-10-01 06:53:00
2:53 AM,51.1,42.1,71,29.89,10.0,Calm,Calm,-,N/A,,Clear,0,2012-10-01 07:53:00
3:53 AM,51.1,42.1,71,29.88,10.0,Calm,Calm,-,N/A,,Clear,0,2012-10-01 08:53:00
4:53 AM,46.9,41.0,80,29.88,10.0,ESE,5.8,-,N/A,,Clear,120,2012-10-01 09:53:00
5:53 AM,46.0,41.0,83,29.89,10.0,ESE,5.8,-,N/A,,Clear,120,2012-10-01 10:53:00
6:53 AM,46.9,42.1,83,29.88,10.0,SE,4.6,-,N/A,,Clear,130,2012-10-01 11:53:00
7:53 AM,48.0,44.1,86,29.90,10.0,SSE,3.5,-,N/A,,Clear,150,2012-10-01 12:53:00
8:53 AM,52.0,44.1,74,29.90,10.0,SSE,5.8,-,N/A,,Clear,150,2012-10-01 13:53:00
9:53 AM,55.0,45.0,69,29.90,10.0,Calm,Calm,-,N/A,,Clear,0,2012-10-01 14:53:00
10:53 AM,60.1,46.9,62,29.89,10.0,WSW,5.8,-,N/A,,Clear,250,2012-10-01 15:53:00
11:53 AM,64.0,45.0,50,29.88,10.0,West,3.5,-,N/A,,Clear,260,2012-10-01 16:53:00
12:53 PM,68.0,45.0,43,29.87,10.0,NW,9.2,-,N/A,,Clear,310,2012-10-01 17:53:00
2:53 PM,73.9,48.0,40,29.84,10.0,North,12.7,20.7,N/A,,Clear,10,2012-10-01 19:53:00
3:53 PM,75.9,48.0,37,29.82,10.0,North,12.7,-,N/A,,Clear,360,2012-10-01 20:53:00
4:53 PM,75.9,46.0,35,29.83,10.0,NNW,17.3,-,N/A,,Clear,340,2012-10-01 21:53:00
5:53 PM,72.0,44.1,37,29.84,10.0,North,12.7,-,N/A,,Clear,360,2012-10-01 22:53:00
6:53 PM,68.0,44.1,42,29.84,10.0,NNW,12.7,-,N/A,,Clear,340,2012-10-01 23:53:00
7:53 PM,64.0,45.0,50,29.86,10.0,NNW,11.5,-,N/A,,Clear,340,2012-10-02 00:53:00
8:53 PM,61.0,46.9,60,29.88,10.0,NNW,9.2,-,N/A,,Clear,340,2012-10-02 01:53:00
9:53 PM,59.0,48.0,67,29.89,10.0,NNW,8.1,-,N/A,,Clear,340,2012-10-02 02:53:00
11:53 PM,54.0,46.9,77,29.88,-9999.0,North,9.2,-,N/A,,Unknown,350,2012-10-02 04:53:00